Onweer radar Meer informatie blitzortung!


Regen radar Meer informatie rain snow radar


Bezoek onze andere website:

Template documentation
and downloads

And another site



15 daagse weersverwachting Skien (NO)

  • Overzicht
  • Per uur
  • 15 dagen
  • Extra
  • Vergelijk
  • Kaarten
  • Dagkaart
  • Meer »
  • Info
  • Statistieken
  • Directe link
    Temp 6h Neerslag Wind  
 05:02     21:55    Daglengte: 16:53 Vandaag
20:00
17°
5.0 mm
2
 05:05     21:53    Daglengte: 16:48 Morgen
02:00
15°
2.0 mm
1
08:00
16°
4.8 mm
2
14:00
18°
37.9 mm
2
warningclass
20:00
17°
17.3 mm
1
 05:07     21:51    Daglengte: 16:44 Vrijdag 30 Jul
02:00
14°
 
1
08:00
16°
 
1
14:00
24°
 
2
20:00
22°
27.6 mm
2
 05:09     21:48    Daglengte: 16:39 Zaterdag 31 Jul
02:00
16°
18.1 mm
2
08:00
17°
30.0 mm
3
warningclass
14:00
17°
56.9 mm
3
Locatie info
Region: Telemark
Latitude: 59.2092°N
Longitude: 9.6086°E
27 masl
Postcode: 3717
Temp/Neerslag /Baro Onweer/Dauwpunt
    Temp Baro 1h Neerslag Dauwpunt Wind UV Bewolking  
 05:02     21:55    Daglengte: 16:53 Vandaag
19:00
17°
1004.2 hPa 0.2 mm
82%
15.1°
2
Windvlaag: 5.4 m/s
49%
20:00
17°
1003.9 hPa
82%
15.2°
2
Windvlaag: 4.2 m/s
53%
21:00
17°
1003.8 hPa 0.3 mm
75%
15.3°
1
Windvlaag: 2.5 m/s
73%
22:00
16°
1003.6 hPa 0.3 mm
74%
15.2°
1
Windvlaag: -0.4 m/s
35%
23:00
16°
1003.5 hPa 0.7 mm
77%
15.1°
1
Windvlaag: -1 m/s
64%
 05:05     21:53    Daglengte: 16:48 Morgen
00:00
16°
1003.0 hPa 0.6 mm
76%
15.2°
1
Windvlaag: -0.2 m/s
22%
01:00
15°
1002.6 hPa
33%
15.0°
1
Windvlaag: 0.4 m/s
23%
02:00
15°
1002.0 hPa
22%
14.7°
1
Windvlaag: 2.8 m/s
53%
03:00
15°
1001.6 hPa
71%
14.7°
1
Windvlaag: 3.3 m/s
54%
04:00
15°
1000.9 hPa 0.3 mm
75%
14.7°
1
Windvlaag: 3.6 m/s
77%
05:00
15°
1000.3 hPa 0.4 mm
82%
14.8°
1
Windvlaag: 2.6 m/s
86%
06:00
15°
999.8 hPa 0.6 mm
82%
15.0°
1
Windvlaag: -0.2 m/s
86% warningclass
07:00
16°
999.1 hPa 1.4 mm
82%
15.4°
2
Windvlaag: 1.2 m/s
86% warningclass
08:00
16°
998.7 hPa 2.1 mm
82%
15.4°
2
Windvlaag: 2.4 m/s
86%
09:00
16°
998.3 hPa 4.7 mm
82%
15.6°
2
Windvlaag: 1.7 m/s
86% warningclass
10:00
16°
997.8 hPa 7.7 mm
82%
15.5°
2
Windvlaag: 0.5 m/s
86% warningclass
11:00
17°
997.5 hPa 8.1 mm
82%
15.5°
2
Windvlaag: 3.9 m/s
86% warningclass
12:00
17°
997.1 hPa 5.7 mm
82%
15.5°
2
Windvlaag: 5.4 m/s
66% warningclass
13:00
18°
996.8 hPa 5.7 mm
82%
16.3°
2
Windvlaag: 4.5 m/s
85%
14:00
18°
996.5 hPa 6.1 mm
82%
16.1°
2
Windvlaag: 4.7 m/s
85% warningclass
15:00
18°
996.0 hPa 5.8 mm
82%
16.0°
2
Windvlaag: 4 m/s
79%
16:00
18°
995.8 hPa 5.8 mm
82%
15.7°
2
Windvlaag: 3.9 m/s
85%
17:00
17°
995.6 hPa 5.7 mm
82%
15.3°
2
Windvlaag: 3.8 m/s
76%
18:00
17°
995.3 hPa
81%
15.2°
2
Windvlaag: 4.8 m/s
75%
19:00
17°
995.1 hPa
81%
15.0°
1
Windvlaag: 4.4 m/s
63%
20:00
17°
994.8 hPa
82%
14.9°
1
Windvlaag: 2.2 m/s
58%
21:00
17°
994.7 hPa
33%
14.7°
1
Windvlaag: 1 m/s
51%
22:00
16°
994.7 hPa
16%
14.5°
1
Windvlaag: 0.7 m/s
46%
23:00
15°
994.5 hPa
17%
14.0°
1
Windvlaag: 0.8 m/s
40%
 05:07     21:51    Daglengte: 16:44 Vrijdag 30 Jul
00:00
14°
994.4 hPa
15%
13.7°
1
Windvlaag: 0.3 m/s
35%
01:00
14°
994.0 hPa
23%
13.6°
1
Windvlaag: 0.2 m/s
50%
02:00
14°
993.8 hPa
23%
13.2°
1
Windvlaag: 0 m/s
66%
03:00
13°
993.4 hPa
14%
12.6°
1
Windvlaag: -0.1 m/s
18%
04:00
13°
993.1 hPa
14%
12.5°
1
Windvlaag: 0.2 m/s
19%
05:00
13°
993.0 hPa
14%
11.9°
1
Windvlaag: 0.6 m/s
33%
06:00
13°
993.0 hPa
14%
12.0°
1
Windvlaag: 0.7 m/s
36%
07:00
15°
993.1 hPa
14%
12.9°
1
Windvlaag: 0.8 m/s
73%
08:00
16°
993.4 hPa
14%
13.9°
1
Windvlaag: 0.9 m/s
45%
09:00
17°
993.4 hPa
14%
14.3°
1
Windvlaag: 0.9 m/s
44%
10:00
19°
993.5 hPa
14%
11.2°
2
Windvlaag: 1 m/s
43%
11:00
20°
993.7 hPa
21%
8.3°
2
Windvlaag: 0.4 m/s
43%
12:00
21°
993.8 hPa
21%
7.3°
2
Windvlaag: 0.5 m/s
39%
13:00
23°
993.7 hPa
31%
6.9°
2
Windvlaag: 0.8 m/s
48%
14:00
24°
993.5 hPa
32%
6.6°
2
Windvlaag: 1.6 m/s
59%
15:00
25°
993.4 hPa
32%
6.2°
1
Windvlaag: 3 m/s
60%
16:00
25°
993.4 hPa
30%
6.4°
2
Windvlaag: 4 m/s
60%
17:00
24°
993.3 hPa 9.1 mm
30%
6.6°
2
Windvlaag: 4.6 m/s
41%
18:00
24°
993.3 hPa 9.4 mm
25%
9.2°
3
Windvlaag: 4.5 m/s
20%
19:00
23°
993.2 hPa 9.1 mm
29%
11.6°
3
Windvlaag: 4.5 m/s
44%
20:00
22°
993.2 hPa
21%
11.1°
2
Windvlaag: 4.5 m/s
53%
21:00
20°
993.3 hPa
21%
15.8°
2
Windvlaag: 3.1 m/s
38%
22:00
19°
993.3 hPa
21%
15.5°
2
Windvlaag: 1.5 m/s
47%
23:00
18°
993.2 hPa
21%
14.1°
2
Windvlaag: 0.7 m/s
54%
 05:09     21:48    Daglengte: 16:39 Zaterdag 31 Jul
00:00
17°
993.2 hPa 9.1 mm
21%
8.3°
2
Windvlaag: 1.2 m/s
47%
01:00
16°
993.1 hPa 9.1 mm
21%
7.7°
2
Windvlaag: 0.4 m/s
18%
02:00
16°
992.9 hPa
21%
11.1°
2
Windvlaag: 0 m/s
46%
03:00
16°
992.9 hPa
25%
14.2°
2
Windvlaag: 0.2 m/s
71%
04:00
16°
992.8 hPa
28%
13.9°
2
Windvlaag: 0.4 m/s
73%
05:00
16°
992.8 hPa 9.2 mm
45%
11.3°
2
Windvlaag: 1.1 m/s
89%
06:00
16°
992.8 hPa 5.7 mm
98%
10.6°
2
Windvlaag: 1 m/s
94%
07:00
16°
993.1 hPa 9.4 mm
97%
9.7°
2
Windvlaag: 1.3 m/s
99%
08:00
17°
993.3 hPa 5.7 mm
97%
9.5°
3
Windvlaag: -0.3 m/s
100% warningclass
09:00
17°
994.4 hPa 9.2 mm
97%
9.7°
2
Windvlaag: 7.7 m/s
93%
10:00
17°
994.4 hPa 9.3 mm
100%
10.5°
3
Windvlaag: 6.9 m/s
94%
11:00
17°
994.6 hPa 9.6 mm
98%
10.9°
2
Windvlaag: 5.9 m/s
100% warningclass
12:00
17°
994.7 hPa 9.6 mm
97%
11.2°
2
Windvlaag: 4 m/s
100% warningclass
13:00
17°
994.7 hPa 9.6 mm
95%
11.3°
3
Windvlaag: 4.3 m/s
100% warningclass
14:00
17°
994.9 hPa 9.5 mm
92%
11.5°
3
Windvlaag: 3.9 m/s
98%
15:00
15°
993.4 hPa 27.0 mm
100%
9.6°
4
Windvlaag: 4.2 m/s
100%
16:00
15°
993.2 hPa 27.0 mm
100%
9.7°
4
Windvlaag: 3.8 m/s
99%
17:00
17°
993.1 hPa 27.0 mm
100%
11.1°
3
Windvlaag: 3.2 m/s
99%
18:00
16°
993.5 hPa 27.0 mm
100%
10.7°
3
Windvlaag: 2.5 m/s
100%
Temp/Neerslag /Baro Onweer/Dauwpunt
    Temp Baro Neerslag Dauwpunt Wind Bewolking  
 05:02     21:55    Daglengte: 16:53 Vandaag
20:00
17°
1003.9 hPa 5.0 mm 15.2°
2
53%
23:00
16°
1003.5 hPa 1.4 mm 15.1°
1
64%
 05:05     21:53    Daglengte: 16:48 Morgen
02:00
15°
1002.0 hPa 0.6 mm 14.7°
1
53%
05:00
15°
1000.3 hPa 0.7 mm 14.8°
1
86%
08:00
16°
998.7 hPa 4.1 mm 15.4°
2
86%
11:00
17°
997.5 hPa 20.5 mm 15.5°
2
86% warningclass
14:00
18°
996.5 hPa 17.4 mm 16.1°
2
85% warningclass
17:00
17°
995.6 hPa 17.3 mm 15.3°
2
76%
20:00
17°
994.8 hPa   14.9°
1
58%
23:00
15°
994.5 hPa   14.0°
1
40%
 05:07     21:51    Daglengte: 16:44 Vrijdag 30 Jul
02:00
14°
993.8 hPa   13.2°
1
66%
05:00
13°
993.0 hPa   11.9°
1
33%
08:00
16°
993.4 hPa   13.9°
1
45%
11:00
20°
993.7 hPa   8.3°
2
43%
14:00
24°
993.5 hPa   6.6°
2
59%
17:00
24°
993.3 hPa 9.1 mm 6.6°
2
41%
20:00
22°
993.2 hPa 18.6 mm 11.1°
2
53%
23:00
18°
993.2 hPa   14.1°
2
54%
 05:09     21:48    Daglengte: 16:39 Zaterdag 31 Jul
02:00
16°
992.9 hPa 18.1 mm 11.1°
2
46%
05:00
16°
992.8 hPa 9.2 mm 11.3°
2
89%
08:00
17°
993.3 hPa 20.8 mm 9.5°
3
100% warningclass
11:00
17°
994.6 hPa 28.2 mm 10.9°
2
100% warningclass
14:00
17°
994.9 hPa 28.7 mm 11.5°
3
98%
17:00
17°
993.1 hPa 81.0 mm 11.1°
3
99%
20:00
16°
993.5 hPa 81.0 mm 11.0°
2
97%
23:00
13°
995.6 hPa 26.3 mm 11.3°
2
1%
 05:11     21:46    Daglengte: 16:35 Zondag 01 Aug
02:00
13°
996.6 hPa 27.0 mm 11.5°
2
1%
05:00
12°
997.0 hPa 27.4 mm 11.4°
2
1%
08:00
13°
998.0 hPa 27.4 mm 11.3°
2
1%
11:00
15°
999.5 hPa 27.4 mm 8.9°
3
1%
14:00
15°
1000.8 hPa 27.4 mm 9.0°
3
1%
17:00
14°
1002.0 hPa 27.4 mm 9.1°
3
1%
20:00
13°
1002.5 hPa 27.5 mm 10.7°
2
1%
23:00
12°
1002.9 hPa 27.7 mm 10.7°
2
1%
 05:14     21:44    Daglengte: 16:30 Maandag 02 Aug
02:00
12°
1003.2 hPa 27.8 mm 10.6°
2
1%
05:00
12°
1003.6 hPa 28.0 mm 10.2°
2
1%
08:00
14°
1003.8 hPa 28.0 mm 9.5°
2
1%
11:00
19°
1004.0 hPa 28.0 mm 5.7°
2
1%
14:00
21°
1003.7 hPa 28.0 mm 6.5°
1
1%
17:00
18°
1004.3 hPa 28.1 mm 8.7°
3
1%
20:00
17°
1004.3 hPa 28.1 mm 11.2°
3
1%
23:00
13°
1005.0 hPa 29.7 mm 12.5°
0
1%
 05:16     21:41    Daglengte: 16:25 Dinsdag 03 Aug
02:00
12°
1005.4 hPa 31.9 mm 11.8°
1
1%
05:00
12°
1005.4 hPa 32.1 mm 11.8°
2
1%
08:00
14°
1006.1 hPa 32.7 mm 13.1°
2
1%
11:00
15°
1007.1 hPa 33.5 mm 13.3°
2
1%
14:00
15°
1008.1 hPa 34.2 mm 12.7°
2
1%
17:00
16°
1008.3 hPa 34.3 mm 11.2°
2
1%
20:00
15°
1008.6 hPa 34.3 mm 10.3°
1
1%
23:00
10°
1010.3 hPa 34.3 mm 9.5°
1
0%
 05:18     21:39    Daglengte: 16:21 Woensdag 04 Aug
02:00
10°
Voelt als: 9.7°
1011.0 hPa 34.3 mm 9.1°
1
0%
05:00
11°
1011.1 hPa 34.4 mm 9.2°
0
1%
08:00
13°
1011.7 hPa 34.4 mm 10.3°
1
1%
11:00
17°
1011.5 hPa 34.4 mm 9.2°
2
1%
14:00
17°
1011.6 hPa 34.5 mm 10.5°
3
1%
17:00
19°
1011.4 hPa   13.1°
4
1%
20:00
17°
1011.0 hPa 71.2 mm 14.7°
3
1%
 05:20     21:36    Daglengte: 16:16 Donderdag 05 Aug
02:00
12°
1012.0 hPa 72.9 mm 11.1°
1
1%
08:00
15°
1011.3 hPa 73.2 mm 13.0°
0
0%
14:00
21°
1010.3 hPa 74.0 mm 11.8°
4
1%
20:00
17°
1009.9 hPa 74.8 mm 13.6°
2
1%
 05:23     21:34    Daglengte: 16:11 Vrijdag 06 Aug
02:00
15°
1009.3 hPa 76.1 mm 14.6°
1
1%
08:00
15°
1007.4 hPa 83.8 mm 14.7°
3
1%
14:00
16°
1005.0 hPa 97.1 mm 14.9°
6
1%
20:00
16°
1004.0 hPa 127.9 mm 15.4°
3
1%
 05:25     21:31    Daglengte: 16:06 Zaterdag 07 Aug
02:00
14°
1004.7 hPa 141.4 mm 14.0°
1
1%
08:00
15°
1005.3 hPa 1.2 mm 13.0°
2
69%
14:00
19°
1005.2 hPa 2.2 mm 13.2°
2
71%
20:00
18°
1005.0 hPa 1.8 mm 13.5°
1
69%
 05:27     21:29    Daglengte: 16:02 Zondag 08 Aug
02:00
14°
1006.2 hPa 2.3 mm 12.3°
1
68%
08:00
15°
1006.4 hPa 1.2 mm 12.6°
1
70%
14:00
20°
1007.2 hPa 1.4 mm 13.0°
1
71%
20:00
19°
1007.4 hPa 1.4 mm 13.5°
1
63%
 05:29     21:26    Daglengte: 15:57 Maandag 09 Aug
02:00
14°
1008.7 hPa 0.5 mm 12.3°
1
67%
08:00
16°
1008.5 hPa 0.6 mm 13.0°
0
74%
14:00
20°
1008.7 hPa 2.5 mm 14.0°
3
72%
20:00
18°
1008.5 hPa 2.5 mm 14.7°
3
69%
 05:32     21:23    Daglengte: 15:51 Dinsdag 10 Aug
02:00
14°
1009.5 hPa 0.6 mm 12.7°
2
56%
08:00
16°
1009.2 hPa 0.4 mm 13.1°
0
68%
14:00
20°
1009.0 hPa 1.2 mm 13.5°
2
74%
20:00
18°
1008.4 hPa 1.5 mm 13.9°
1
66%
 05:34     21:21    Daglengte: 15:47 Woensdag 11 Aug
02:00
14°
1009.6 hPa 0.5 mm 12.4°
1
46%
08:00
15°
1009.6 hPa 0.7 mm 12.5°
1
60%
14:00
20°
1009.5 hPa 1.2 mm 13.5°
2
60%
20:00
18°
1008.8 hPa 1.5 mm 13.8°
2
65%
 05:36     21:18    Daglengte: 15:42 Donderdag 12 Aug
02:00
14°
1009.5 hPa 0.7 mm 12.0°
1
61%
08:00
15°
1009.5 hPa 0.8 mm 12.2°
1
62%
14:00
20°
1009.5 hPa 0.1 mm 12.2°
1
60%
  CAPE Lifted Index Hail Supercell Tornado SRH 3km CL BTM PRES CL TOP PRES Swiss DWD icon SMHI TS
 05:02     21:55    Daglengte: 16:53 Vandaag
19:00 156 J/kg -0.8 K 0 % 0 % 0 % 0 m²/s² 0 0 -0.38 61
20:00 260 J/kg -1.1 K 0 % 0 % 0 % 0 m²/s² 0 0 -0.41 3
21:00 307 J/kg -1.3 K 0 % 0 % 0 % 0 m²/s² 0 0 -0.7 3
22:00 393 J/kg -1.2 K 0 % 0 % 0 % 0 m²/s² 0 0 -0.27 3
23:00 507 J/kg -1.6 K 0 % 0 % 0 % 0 m²/s² 0 0 -0.61 80
 05:05     21:53    Daglengte: 16:48 Morgen
00:00 559 J/kg -1.8 K 0 % 0 % 0 % 0 m²/s² 0 0 -0.87 80
01:00 259 J/kg -0.7 K 0 % 0 % 0 % 0 m²/s² 0 0 0.29 2
02:00 195 J/kg -0.6 K 0 % 0 % 0 % 0 m²/s² 0 0 0.15 3
03:00 210 J/kg -0.8 K 0 % 0 % 0 % 0 m²/s² 0 0 0.13 3
04:00 255 J/kg -1.0 K 0 % 0 % 0 % 0 m²/s² 0 0 -0.07 3
05:00 366 J/kg -1.6 K 0 % 0 % 0 % 0 m²/s² 0 0 0.38 3
06:00 613 J/kg -2.5 K 0 % 0 % 0 % 0 m²/s² 0 0 -2.38 80
07:00 599 J/kg -2.4 K 0 % 0 % 0 % 0 m²/s² 0 0 -0.96 95
08:00 280 J/kg -1.1 K 0 % 0 % 0 % 0 m²/s² 0 0 -0.92 80
09:00 515 J/kg -2.7 K 0 % 0 % 0 % 0 m²/s² 0 0 -2.58 80
10:00 1043 J/kg -4.2 K 0 % 0 % 0 % 0 m²/s² 0 0 -3.24 80
11:00 828 J/kg -3.3 K 0 % 0 % 0 % 0 m²/s² 0 0 -2.1 80
12:00 840 J/kg -3.3 K 0 % 0 % 0 % 0 m²/s² 0 0 -2.37 80
13:00 747 J/kg -2.7 K 0 % 0 % 0 % 0 m²/s² 0 0 -1.8 80
14:00 603 J/kg -2.1 K 0 % 0 % 0 % 0 m²/s² 0 0 -1.05 95
15:00 387 J/kg -1.2 K 0 % 0 % 0 % 0 m²/s² 0 0 0.87 80
16:00 328 J/kg -1.1 K 0 % 0 % 0 % 0 m²/s² 0 0 0.97 80
17:00 417 J/kg -1.7 K 0 % 0 % 0 % 0 m²/s² 0 0 0.46 3
18:00 403 J/kg -1.8 K 0 % 0 % 0 % 0 m²/s² 0 0 -0.48 3
19:00 451 J/kg -2.1 K 0 % 0 % 0 % 0 m²/s² 0 0 -1.41 3
20:00 504 J/kg -2.4 K 0 % 0 % 0 % 0 m²/s² 0 0 -1.68 80
21:00 556 J/kg -1.9 K 0 % 0 % 0 % 0 m²/s² 0 0 -1.09 3
22:00 300 J/kg -0.9 K 0 % 0 % 0 % 0 m²/s² 0 0 -0.51 3
23:00 48 J/kg -0.3 K 0 % 0 % 0 % 0 m²/s² 0 0 0.21 3
 05:07     21:51    Daglengte: 16:44 Vrijdag 30 Jul
00:00 26 J/kg 0.3 K 0 % 0 % 0 % 0 m²/s² 0 0 1.23 45
01:00 0 J/kg 0.0 K 0 % 0 % 0 % 0 m²/s² 0 0 1.98 45
02:00 0 J/kg 0.3 K 0 % 0 % 0 % 0 m²/s² 0 0 2.55 45
03:00 0 J/kg 1.2 K 0 % 0 % 0 % 0 m²/s² 0 0 2.76 45
04:00 0 J/kg 1.8 K 0 % 0 % 0 % 0 m²/s² 0 0 2.31 2
05:00 0 J/kg 2.5 K 0 % 0 % 0 % 0 m²/s² 0 0 2.74 3
06:00 0 J/kg 1.7 K 0 % 0 % 0 % 0 m²/s² 0 0 2.84 3
07:00 0 J/kg 1.9 K 0 % 0 % 0 % 0 m²/s² 0 0 2.74 3
08:00 0 J/kg 0.9 K 0 % 0 % 0 % 0 m²/s² 0 0 1.56 3
09:00 0 J/kg -0.3 K 0 % 0 % 0 % 0 m²/s² 0 0 0.45 3
10:00 127 J/kg -0.7 K 0 % 0 % 0 % 0 m²/s² 0 0 0.14 3
11:00 0 J/kg 0.6 K 0 % 0 % 0 % 0 m²/s² 0 0 2.01 3
12:00 0 J/kg 1.6 K 0 % 0 % 0 % 0 m²/s² 0 0 3.01 3
13:00 0 J/kg 1.5 K 0 % 0 % 0 % 0 m²/s² 0 0 3.03 3
14:00 0 J/kg 1.5 K 0 % 0 % 0 % 0 m²/s² 0 0 3.87 3
15:00 0 J/kg 1.3 K 0 % 0 % 0 % 0 m²/s² 0 0 5.5 3
16:00 0 J/kg 1.1 K 0 % 0 % 0 % 0 m²/s² 0 0 6.14 3
17:00 3 J/kg 0.5 K 0 % 0 % 0 % 0 m²/s² 0 0 4.82 3
18:00 442 J/kg -1.7 K 0 % 0 % 0 % 0 m²/s² 0 0 2.2 1
19:00 847 J/kg -3.2 K 0 % 0 % 0 % 0 m²/s² 0 0 0.49 3
20:00 851 J/kg -2.9 K 0 % 0 % 0 % 0 m²/s² 0 0 1 3
21:00 1233 J/kg -4.4 K 0 % 0 % 0 % 0 m²/s² 0 0 -0.29 3
22:00 1049 J/kg -4.3 K 0 % 0 % 0 % 0 m²/s² 0 0 -0.88 3
23:00 559 J/kg -2.6 K 0 % 0 % 0 % 0 m²/s² 0 0 1.6 3
 05:09     21:48    Daglengte: 16:39 Zaterdag 31 Jul
00:00 0 J/kg 0.9 K 0 % 0 % 0 % 0 m²/s² 0 0 4.89 2
01:00 0 J/kg 0.7 K 0 % 0 % 0 % 0 m²/s² 0 0 4.57 2
02:00 31 J/kg -1.6 K 0 % 0 % 0 % 0 m²/s² 0 0 2.39 3
03:00 142 J/kg -2.9 K 0 % 0 % 0 % 0 m²/s² 0 0 0.88 3
04:00 0 J/kg -2.4 K 0 % 0 % 0 % 0 m²/s² 0 0 1.26 3
05:00 0 J/kg -2.1 K 0 % 0 % 0 % 0 m²/s² 0 0 1.65 3
06:00 0 J/kg -2.6 K 0 % 0 % 0 % 0 m²/s² 0 0 1.06 80
07:00 0 J/kg -2.4 K 0 % 0 % 0 % 0 m²/s² 0 0 1.17 80
08:00 0 J/kg -1.8 K 0 % 0 % 0 % 0 m²/s² 0 0 1.77 95
09:00 0 J/kg -0.9 K 0 % 0 % 0 % 0 m²/s² 0 0 2.55 80
10:00 0 J/kg -0.6 K 0 % 0 % 0 % 0 m²/s² 0 0 2.94 80
11:00 0 J/kg -0.4 K 0 % 0 % 0 % 0 m²/s² 0 0 3.05 95
12:00 0 J/kg -0.1 K 0 % 0 % 0 % 0 m²/s² 0 0 3.44 95
13:00 0 J/kg 0.2 K 0 % 0 % 0 % 0 m²/s² 0 0 4.13 95
14:00 0 J/kg -0.1 K 0 % 0 % 0 % 0 m²/s² 0 0 3.83 80
15:00 0 J/kg -0.1 K 0 % 0 % 0 % 0 m²/s² 0 0 3.62
16:00 0 J/kg 0.5 K 0 % 0 % 0 % 0 m²/s² 0 0 4.04
17:00 0 J/kg 1.2 K 0 % 0 % 0 % 0 m²/s² 0 0 4.65
18:00 0 J/kg 0.8 K 0 % 0 % 0 % 0 m²/s² 0 0 4.13
Temp Baro Wind Neerslag
  EWN Forecast EWN WRFDA DWD ICON FMI HIRLAM MET Norway GFS
 05:02     21:55    Daglengte: 16:53 Vandaag
20:00 17.3° 1003.9 hPa 1.8 m/s 5.0 mm 18.3° 1003.2 hPa 3.8 m/s 0.2 mm 16.7° 1003.7 hPa 1.6 m/s 3.7 mm 18.0° 1004.0 hPa 1.3 m/s 0.0 mm 17.8° 1003.6 hPa 1.5 m/s
23:00 15.8° 1003.5 hPa 1.2 m/s 1.4 mm 16.8° 1002.5 hPa 1.7 m/s 0.4 mm 15.7° 1003.7 hPa 1.1 m/s 0.7 mm 14.9° 1003.7 hPa 0.7 m/s 0.0 mm 14.6° 1003.4 hPa 0.9 m/s
 05:05     21:53    Daglengte: 16:48 Morgen
02:00 14.9° 1002.0 hPa 1.4 m/s 0.6 mm 14.6° 1001.6 hPa 1.7 m/s 1.3 mm 14.9° 1002.1 hPa 0.9 m/s 0.2 mm 13.0° 1002.3 hPa 1.2 m/s 0.0 mm 13.7° 1001.9 hPa 0.9 m/s
05:00 15.1° 1000.3 hPa 1.4 m/s 0.7 mm 15.7° 998.8 hPa 2.8 m/s 1.6 mm 15.2° 1000.7 hPa 1.1 m/s 0.4 mm 13.2° 1000.5 hPa 1.1 m/s 0.0 mm 13.2° 1000.5 hPa 1.3 m/s
08:00 15.8° 998.7 hPa 2.3 m/s 4.1 mm 15.9° 996.8 hPa 4.8 m/s 11.2 mm 15.8° 999.2 hPa 2.1 m/s 2.7 mm 15.3° 998.9 hPa 1.0 m/s 0.0 mm 14.9° 998.2 hPa 2.2 m/s
11:00 16.6° 997.5 hPa 2.0 m/s 20.5 mm 16.6° 996.4 hPa 3.0 m/s 64.7 mm 16.3° 998.6 hPa 2.4 m/s 5.5 mm 18.3° 997.6 hPa 1.4 m/s 0.0 mm 16.1° 997.1 hPa 1.3 m/s
14:00 17.9° 996.5 hPa 1.9 m/s 17.4 mm 17.8° 995.6 hPa 3.3 m/s 78.4 mm 16.9° 997.3 hPa 1.8 m/s 2.1 mm 18.8° 996.5 hPa 1.7 m/s 0.0 mm 17.6° 996.0 hPa 1.7 m/s
17:00 17.5° 995.6 hPa 2.1 m/s 17.3 mm 18.5° 994.5 hPa 2.8 m/s 79.5 mm 16.5° 996.9 hPa 1.5 m/s 1.7 mm 18.6° 995.2 hPa 2.4 m/s 0.0 mm 16.8° 995.4 hPa 0.2 m/s
20:00 17.1° 994.8 hPa 0.9 m/s 0.0 mm 18.5° 993.6 hPa 2.4 m/s 80.5 mm 16.1° 996.1 hPa 0.6 m/s 0.9 mm 18.0° 994.2 hPa 0.8 m/s 0.0 mm 16.2° 994.4 hPa 0.9 m/s
23:00 14.8° 994.5 hPa 1.1 m/s 0.0 mm 15.1° 992.8 hPa 2.3 m/s 81.0 mm 14.3° 995.7 hPa 0.8 m/s 0.0 mm 15.8° 993.3 hPa 0.9 m/s 0.0 mm 14.5° 993.8 hPa 1.2 m/s
 05:07     21:51    Daglengte: 16:44 Vrijdag 30 Jul
02:00 13.8° 993.8 hPa 1.3 m/s 0.0 mm 14.2° 991.3 hPa 1.9 m/s 81.0 mm 13.5° 995.3 hPa 1.2 m/s 0.0 mm 15.9° 992.4 hPa 1.6 m/s 0.0 mm 13.8° 993.2 hPa 1.5 m/s
05:00 13.0° 993.0 hPa 1.3 m/s 0.0 mm 14.5° 990.4 hPa 2.3 m/s 81.0 mm 12.5° 994.8 hPa 1.1 m/s 0.0 mm 14.7° 991.6 hPa 2.6 m/s 0.0 mm 13.9° 993.2 hPa 1.5 m/s
08:00 15.9° 993.4 hPa 1.3 m/s 0.0 mm 18.3° 990.3 hPa 3.6 m/s 81.0 mm 15.9° 995.2 hPa 0.9 m/s 0.0 mm 16.5° 992.5 hPa 2.6 m/s 0.0 mm 15.4° 993.4 hPa 1.8 m/s
11:00 20.3° 993.7 hPa 2.2 m/s 0.0 mm 23.8° 990.6 hPa 3.3 m/s 81.0 mm 19.9° 996.0 hPa 1.3 m/s 0.0 mm 21.1° 994.0 hPa 2.0 m/s
14:00 23.9° 993.5 hPa 1.6 m/s 0.0 mm 26.5° 991.1 hPa 2.1 m/s 81.0 mm 23.1° 995.8 hPa 1.3 m/s 0.0 mm 25.8° 994.1 hPa 2.5 m/s
17:00 24.5° 993.3 hPa 2.2 m/s 9.1 mm 27.6° 990.9 hPa 0.8 m/s 81.0 mm 23.7° 995.7 hPa 2.8 m/s 0.0 mm 25.7° 993.7 hPa 4.1 m/s
20:00 22.0° 993.2 hPa 2.0 m/s 18.6 mm 25.4° 990.4 hPa 1.4 m/s 81.0 mm 21.6° 995.6 hPa 2.2 m/s 0.0 mm 22.2° 993.3 hPa 2.1 m/s
23:00 17.6° 993.2 hPa 1.6 m/s 0.0 mm 18.5° 990.5 hPa 2.7 m/s 81.0 mm 17.0° 995.7 hPa 1.1 m/s 0.0 mm 16.3° 993.6 hPa 1.5 m/s
 05:09     21:48    Daglengte: 16:39 Zaterdag 31 Jul
02:00 15.7° 992.9 hPa 1.6 m/s 18.1 mm 15.6° 990.3 hPa 2.5 m/s 81.0 mm 15.6° 995.1 hPa 1.2 m/s 0.0 mm 14.0° 993.2 hPa 0.6 m/s
05:00 16.0° 992.8 hPa 2.3 m/s 9.2 mm 15.1° 990.5 hPa 4.5 m/s 81.0 mm 16.8° 994.8 hPa 1.3 m/s 0.0 mm 13.1° 992.9 hPa 0.5 m/s
08:00 16.5° 993.3 hPa 2.7 m/s 20.8 mm 14.9° 991.2 hPa 5.4 m/s 81.0 mm 17.0° 995.1 hPa 1.1 m/s 1.7 mm 15.7° 992.6 hPa 0.3 m/s
11:00 17.3° 994.6 hPa 2.5 m/s 28.2 mm 15.7° 992.0 hPa 4.1 m/s 81.0 mm 17.6° 995.3 hPa 2.1 m/s 1.8 mm 17.5° 992.8 hPa 1.1 m/s
14:00 17.2° 994.9 hPa 2.6 m/s 28.7 mm 15.2° 993.1 hPa 3.8 m/s 81.0 mm 17.7° 995.3 hPa 2.3 m/s 2.6 mm 19.2° 992.9 hPa 1.5 m/s
17:00 16.9° 993.1 hPa 3.0 m/s 81.0 mm 16.9° 993.1 hPa 3.0 m/s 81.0 mm 19.8° 993.1 hPa 3.2 m/s
20:00 16.2° 993.5 hPa 1.8 m/s 81.0 mm 16.2° 993.5 hPa 1.8 m/s 81.0 mm 15.8° 994.3 hPa 3.0 m/s
23:00 13.1° 995.6 hPa 2.2 m/s 26.3 mm 13.1° 995.6 hPa 2.2 m/s 26.3 mm
 05:11     21:46    Daglengte: 16:35 Zondag 01 Aug
02:00 12.7° 996.6 hPa 2.4 m/s 27.0 mm 12.7° 996.6 hPa 2.4 m/s 27.0 mm
05:00 12.3° 997.0 hPa 2.2 m/s 27.4 mm 12.3° 997.0 hPa 2.2 m/s 27.4 mm
08:00 13.4° 998.0 hPa 2.1 m/s 27.4 mm 13.4° 998.0 hPa 2.1 m/s 27.4 mm
11:00 15.1° 999.5 hPa 3.1 m/s 27.4 mm 15.1° 999.5 hPa 3.1 m/s 27.4 mm
14:00 15.2° 1000.8 hPa 3.3 m/s 27.4 mm 15.2° 1000.8 hPa 3.3 m/s 27.4 mm
17:00 14.2° 1002.0 hPa 2.6 m/s 27.4 mm 14.2° 1002.0 hPa 2.6 m/s 27.4 mm
20:00 12.7° 1002.5 hPa 1.7 m/s 27.5 mm 12.7° 1002.5 hPa 1.7 m/s 27.5 mm
23:00 11.9° 1002.9 hPa 1.8 m/s 27.7 mm 11.9° 1002.9 hPa 1.8 m/s 27.7 mm
 05:14     21:44    Daglengte: 16:30 Maandag 02 Aug
02:00 11.9° 1003.2 hPa 2.1 m/s 27.8 mm 11.9° 1003.2 hPa 2.1 m/s 27.8 mm
05:00 11.6° 1003.6 hPa 1.9 m/s 28.0 mm 11.6° 1003.6 hPa 2.0 m/s 28.0 mm
08:00 13.8° 1003.8 hPa 1.7 m/s 28.0 mm 13.8° 1003.8 hPa 1.7 m/s 28.0 mm
11:00 18.9° 1004.0 hPa 1.6 m/s 28.0 mm 18.9° 1004.0 hPa 1.6 m/s 28.0 mm
14:00 21.5° 1003.7 hPa 1.5 m/s 28.0 mm 21.5° 1003.7 hPa 1.5 m/s 28.0 mm
17:00 18.1° 1004.3 hPa 3.0 m/s 28.1 mm 18.1° 1004.3 hPa 3.0 m/s 28.1 mm
20:00 16.8° 1004.3 hPa 2.7 m/s 28.1 mm 16.8° 1004.3 hPa 2.7 m/s 28.1 mm
23:00 13.2° 1005.0 hPa 0.4 m/s 29.7 mm 13.2° 1005.0 hPa 0.4 m/s 29.7 mm
 05:16     21:41    Daglengte: 16:25 Dinsdag 03 Aug
02:00 12.2° 1005.4 hPa 1.0 m/s 31.9 mm 12.2° 1005.4 hPa 1.0 m/s 31.9 mm
05:00 12.3° 1005.4 hPa 1.8 m/s 32.1 mm 12.3° 1005.4 hPa 1.8 m/s 32.1 mm
08:00 14.1° 1006.1 hPa 2.0 m/s 32.7 mm 14.1° 1006.1 hPa 2.0 m/s 32.7 mm
11:00 14.9° 1007.1 hPa 2.5 m/s 33.5 mm 14.9° 1007.1 hPa 2.5 m/s 33.5 mm
14:00 14.7° 1008.1 hPa 2.4 m/s 34.2 mm 14.7° 1008.1 hPa 2.4 m/s 34.2 mm
17:00 16.0° 1008.3 hPa 2.1 m/s 34.3 mm 16.0° 1008.3 hPa 2.1 m/s 34.3 mm
20:00 15.4° 1008.6 hPa 1.5 m/s 34.3 mm 15.4° 1008.6 hPa 1.5 m/s 34.3 mm
23:00 10.4° 1010.3 hPa 1.2 m/s 34.3 mm 10.4° 1010.3 hPa 1.2 m/s 34.3 mm
 05:18     21:39    Daglengte: 16:21 Woensdag 04 Aug
02:00 9.7° 1011.0 hPa 1.0 m/s 34.3 mm 9.7° 1011.0 hPa 1.0 m/s 34.3 mm
05:00 10.8° 1011.1 hPa 0.3 m/s 34.4 mm 10.8° 1011.1 hPa 0.3 m/s 34.4 mm
08:00 12.9° 1011.7 hPa 0.5 m/s 34.4 mm 12.9° 1011.7 hPa 0.5 m/s 34.4 mm
11:00 16.7° 1011.5 hPa 1.8 m/s 34.4 mm 16.7° 1011.5 hPa 1.8 m/s 34.4 mm
14:00 17.3° 1011.6 hPa 3.4 m/s 34.5 mm 17.3° 1011.6 hPa 3.4 m/s 34.5 mm
17:00 18.6° 1011.4 hPa 3.6 m/s 35.0 mm 18.6° 1011.4 hPa 3.6 m/s 35.0 mm
20:00 16.9° 1011.0 hPa 2.7 m/s 36.1 mm 16.9° 1011.0 hPa 2.7 m/s 36.1 mm
 05:20     21:36    Daglengte: 16:16 Donderdag 05 Aug
02:00 11.9° 1012.0 hPa 1.0 m/s 36.4 mm 11.9° 1012.0 hPa 1.0 m/s 36.4 mm
08:00 15.0° 1011.3 hPa 0.3 m/s 36.6 mm 15.0° 1011.3 hPa 0.3 m/s 36.6 mm
14:00 21.1° 1010.3 hPa 4.3 m/s 37.4 mm 21.1° 1010.3 hPa 4.3 m/s 37.3 mm
20:00 16.9° 1009.9 hPa 2.2 m/s 37.4 mm 16.9° 1009.9 hPa 2.2 m/s 37.4 mm
 05:23     21:34    Daglengte: 16:11 Vrijdag 06 Aug
02:00 14.9° 1009.3 hPa 1.4 m/s 38.6 mm 14.9° 1009.3 hPa 1.4 m/s 38.6 mm
08:00 15.4° 1007.4 hPa 2.6 m/s 43.0 mm 15.4° 1007.4 hPa 2.6 m/s 43.0 mm
14:00 15.6° 1005.0 hPa 5.9 m/s 53.1 mm 15.6° 1005.0 hPa 5.9 m/s 53.1 mm
20:00 15.5° 1004.0 hPa 2.7 m/s 67.5 mm 15.5° 1004.0 hPa 2.7 m/s 67.5 mm
 05:25     21:31    Daglengte: 16:06 Zaterdag 07 Aug
02:00 14.2° 1004.7 hPa 0.8 m/s 71.2 mm 14.2° 1004.7 hPa 0.8 m/s 71.2 mm
08:00 15.3° 1005.3 hPa 1.5 m/s 1.2 mm
14:00 19.2° 1005.2 hPa 1.6 m/s 2.2 mm
20:00 18.0° 1005.0 hPa 0.6 m/s 1.8 mm
 05:27     21:29    Daglengte: 16:02 Zondag 08 Aug
02:00 14.2° 1006.2 hPa 0.9 m/s 2.3 mm
08:00 15.2° 1006.4 hPa 1.4 m/s 1.2 mm
14:00 19.9° 1007.2 hPa 1.1 m/s 1.4 mm
20:00 18.6° 1007.4 hPa 1.3 m/s 1.4 mm
 05:29     21:26    Daglengte: 15:57 Maandag 09 Aug
02:00 14.5° 1008.7 hPa 0.7 m/s 0.5 mm
08:00 15.9° 1008.5 hPa 0.1 m/s 0.6 mm
14:00 19.9° 1008.7 hPa 2.6 m/s 2.5 mm
20:00 18.3° 1008.5 hPa 2.6 m/s 2.5 mm
 05:32     21:23    Daglengte: 15:51 Dinsdag 10 Aug
02:00 14.3° 1009.5 hPa 1.5 m/s 0.6 mm
08:00 15.6° 1009.2 hPa 0.5 m/s 0.4 mm
14:00 20.2° 1009.0 hPa 2.1 m/s 1.2 mm
20:00 18.1° 1008.4 hPa 1.5 m/s 1.5 mm
 05:34     21:21    Daglengte: 15:47 Woensdag 11 Aug
02:00 14.0° 1009.6 hPa 1.1 m/s 0.5 mm
08:00 15.4° 1009.6 hPa 0.9 m/s 0.7 mm
14:00 20.2° 1009.5 hPa 1.5 m/s 1.2 mm
20:00 18.1° 1008.8 hPa 1.5 m/s 1.5 mm
 05:36     21:18    Daglengte: 15:42 Donderdag 12 Aug
02:00 14.3° 1009.5 hPa 1.4 m/s 0.7 mm
08:00 15.4° 1009.5 hPa 1.1 m/s 0.8 mm
14:00 20.4° 1009.5 hPa 1.1 m/s 0.1 mm
FMI Hirlam - 7.5 km EWN WRFDA - 12 km DWD ICON - 7 km GFS - 25 km Basiskaart